Location: Unspecified
(43.8044°N, 11.0278°E)
Time: 02:14:23
(UTC+02:00)

Resurs 1-4 Rocket - Visible Passes

Search period start: 17 October 2017 00:00
Search period end: 27 October 2017 00:00
Orbit: 800 x 813 km, 98.5° (Epoch: 16 October)

Date Brightness Start Highest point End Pass type
(mag) Time Alt. Az. Time Alt. Az. Time Alt. Az.
17 Oct 4.5 04:17:23 10° N 04:17:58 13° N 04:17:58 13° N visible
18 Oct 4.7 03:52:37 10° N 03:52:59 12° N 03:52:59 12° N visible
20 Oct 4.6 04:43:58 10° N 04:44:05 10° N 04:44:05 10° N visible
21 Oct 4.7 04:18:59 10° N 04:19:05 11° N 04:19:05 11° N visible
